User: anonymous   Login
Location: Unspecified
(0.0000°N, 0.0000°E)
Time: 13:49:45
(UTC+02:00)
Language:

Cosmos 2251 - Orbit

View from above orbital plane
View from above orbital plane
View from above satellite
View from above satellite

Ground track
Ground track

The orbit data is extracted from the following two-line orbital elements,

1 22675U 93036A   16273.16882462  .00000032  00000-0  21195-4 0  9996
2 22675  74.0404 332.4639 0024518 157.4240 202.7996 14.32482730216655
Epoch (UTC): 29 September 2016 04:03:06
Eccentricity: 0.0024518
inclination: 74.0404°
perigee height: 766 km
apogee height: 801 km
right ascension of ascending node: 332.4639°
argument of perigee: 157.4240°
revolutions per day: 14.32482730
mean anomaly at epoch: 202.7996°
orbit number at epoch: 21665

The dashed part of the orbit path shows where the satellite is in the earth's shadow,  

DLR